Location: Dover
(39.1580°N, 75.5250°W)
Time: 12:23:43
(UTC-04:00)

ISS - All Passes

Search period start: 30 May 2016 00:00
Search period end: 09 June 2016 00:00
Orbit: 402 x 404 km, 51.6° (Epoch: 30 May)

Date Brightness Start Highest point End Pass type
(mag) Time Alt. Az. Time Alt. Az. Time Alt. Az.
30 May - 01:21:19 10° N 01:22:36 12° NNE 01:23:52 10° NE visible
30 May - 02:56:41 10° NW 02:59:46 38° NNE 03:02:50 10° ESE visible
30 May - 04:33:30 10° W 04:36:03 21° SW 04:38:36 10° S visible
30 May - 19:36:04 10° S 19:38:28 19° SE 19:40:54 10° E daylight
30 May - 21:11:37 10° WSW 21:14:43 41° NNW 21:17:51 10° NE visible
30 May - 22:50:27 10° NW 22:51:51 12° NNW 22:53:14 10° NNE visible
31 May - 02:04:10 10° NNW 02:06:53 23° NNE 02:09:35 10° E visible
31 May - 03:40:19 10° WNW 03:43:26 43° SW 03:46:32 10° SSE visible
31 May - 20:18:39 10° SW 20:21:55 80° NW 20:25:11 10° NE daylight
31 May - 21:56:42 10° WNW 21:58:48 16° NNW 22:00:53 10° NNE visible
01 Jun - 01:11:42 10° NNW 01:13:53 16° NNE 01:16:05 10° ENE visible
01 Jun - 02:47:28 10° NW 02:50:44 89° NE 02:53:59 10° SE visible
01 Jun - 19:26:02 10° SSW 19:29:11 48° SE 19:32:21 10° ENE daylight
01 Jun - 21:03:09 10° W 21:05:47 22° NNW 21:08:26 10° NNE visible
02 Jun - 00:19:19 10° NNW 00:20:50 13° NNE 00:22:20 10° NE visible
02 Jun - 01:54:46 10° NW 01:57:56 45° NNE 02:01:04 10° ESE visible
02 Jun - 03:31:52 10° W 03:34:07 17° SW 03:36:22 10° S night (unlit)
02 Jun - 18:33:51 10° S 18:36:32 24° SE 18:39:13 10° ENE daylight
02 Jun - 20:09:49 10° W 20:12:51 35° NNW 20:15:53 10° NE daylight
02 Jun - 21:48:54 10° NNW 21:50:02 11° NNW 21:51:12 10° N visible
02 Jun - 23:27:06 10° N 23:27:42 10° N 23:28:18 10° NNE visible
03 Jun - 01:02:10 10° NNW 01:05:01 27° NNE 01:07:51 10° E visible
03 Jun - 02:38:29 10° WNW 02:41:29 34° SW 02:44:29 10° SSE night (unlit)
03 Jun - 17:42:36 10° SSE 17:43:56 12° SE 17:45:16 10° ESE daylight
03 Jun - 19:16:44 10° WSW 19:19:59 65° NW 19:23:14 10° NE daylight
03 Jun - 20:55:01 10° NW 20:56:56 14° NNW 20:58:50 10° NNE visible
04 Jun - 00:09:40 10° NNW 00:12:01 18° NNE 00:14:22 10° ENE visible
04 Jun - 01:45:31 10° NW 01:48:46 74° SW 01:52:01 10° SE visible
04 Jun - 18:23:58 10° SW 18:27:11 61° SE 18:30:25 10° ENE daylight
04 Jun - 20:01:22 10° WNW 20:03:51 20° NNW 20:06:22 10° NNE daylight
04 Jun - 23:17:12 10° NNW 23:18:56 13° NNE 23:20:40 10° NE visible
05 Jun - 00:52:44 10° NW 00:55:57 54° NE 00:59:09 10° ESE visible
05 Jun - 02:30:13 10° W 02:32:04 14° SW 02:33:54 10° SSW night (unlit)
05 Jun - 17:31:36 10° SSW 17:34:28 29° SE 17:37:20 10° ENE daylight
05 Jun - 19:07:55 10° W 19:10:52 30° NNW 19:13:48 10° NE daylight
05 Jun - 20:47:14 10° NNW 20:48:07 11° N 20:49:01 10° N daylight
05 Jun - 22:24:51 10° N 22:25:47 11° N 22:26:41 10° NNE visible
06 Jun - 00:00:05 10° NW 00:03:02 30° NNE 00:05:59 10° E visible
06 Jun - 01:36:34 10° WNW 01:39:26 28° SW 01:42:16 10° SSE visible
06 Jun - 16:39:54 10° SSE 16:41:49 15° SE 16:43:44 10° E daylight
06 Jun - 18:14:44 10° WSW 18:17:56 53° NW 18:21:09 10° NE daylight
06 Jun - 19:53:15 10° NW 19:54:57 13° NNW 19:56:40 10° NNE daylight
06 Jun - 23:07:30 10° NNW 23:10:01 20° NNE 23:12:32 10° ENE visible
07 Jun - 00:43:28 10° WNW 00:46:41 59° SW 00:49:53 10° SE visible
07 Jun - 17:21:50 10° SW 17:25:04 76° SE 17:28:20 10° NE daylight
07 Jun - 18:59:29 10° WNW 19:01:50 18° NNW 19:04:11 10° NNE daylight
07 Jun - 22:15:00 10° NNW 22:16:55 15° NNE 22:18:50 10° NE visible
07 Jun - 23:50:36 10° NW 23:53:51 66° NE 23:57:05 10° ESE visible
08 Jun - 01:28:39 10° WSW 01:29:53 12° SW 01:31:07 10° SSW night (unlit)
08 Jun - 16:29:17 10° SSW 16:32:17 35° SE 16:35:19 10° ENE daylight
08 Jun - 18:05:57 10° W 18:08:46 26° NNW 18:11:36 10° NNE daylight
08 Jun - 19:45:31 10° NNW 19:46:05 10° N 19:46:40 10° N daylight
08 Jun - 21:22:34 10° N 21:23:44 11° NNE 21:24:55 10° NNE visible
08 Jun - 22:57:52 10° NW 23:00:55 35° NNE 23:03:57 10° E visible
